TimePST,TemperatureF,Dew PointF,Humidity,Sea Level PressureIn,VisibilityMPH,Wind Direction,Wind SpeedMPH,Gust SpeedMPH,PrecipitationIn,Events,Conditions,WindDirDegrees,DateUTC
12:20 AM,51.8,-9999,N/A,29.43,6.0,South,11.5,18.4,N/A,,Haze,180,2012-11-19 08:20:00
12:33 AM,51.8,-9999,N/A,29.44,5.0,South,9.2,24.2,N/A,,Haze,190,2012-11-19 08:33:00
12:53 AM,52.0,-9999,N/A,29.45,5.0,South,9.2,17.3,N/A,,Haze,190,2012-11-19 08:53:00
1:53 AM,52.0,-9999,N/A,29.44,4.0,SSW,9.2,16.1,0.00,Rain,Light Rain,200,2012-11-19 09:53:00
2:31 AM,51.8,-9999,N/A,29.45,6.0,South,8.1,-,0.01,,Haze,190,2012-11-19 10:31:00
2:39 AM,51.8,-9999,N/A,29.45,4.0,South,4.6,-,0.01,Rain,Light Rain,190,2012-11-19 10:39:00
2:45 AM,51.8,-9999,N/A,29.45,2.5,South,8.1,-,0.01,Rain,Light Rain,190,2012-11-19 10:45:00
2:49 AM,51.8,-9999,N/A,29.44,1.5,South,8.1,-,0.01,Rain,Light Rain,170,2012-11-19 10:49:00
2:53 AM,51.1,-9999,N/A,29.44,1.2,South,6.9,-,0.04,Rain,Heavy Rain,180,2012-11-19 10:53:00
3:00 AM,51.8,-9999,N/A,29.43,1.2,Variable,3.5,-,0.02,Rain,Rain,0,2012-11-19 11:00:00
3:16 AM,50.0,-9999,N/A,29.43,2.5,South,4.6,-,0.06,Rain,Light Rain,190,2012-11-19 11:16:00
3:22 AM,51.8,-9999,N/A,29.43,6.0,South,5.8,-,0.06,,Haze,190,2012-11-19 11:22:00
3:46 AM,51.8,-9999,N/A,29.42,3.0,South,9.2,17.3,0.06,,Overcast,190,2012-11-19 11:46:00
3:53 AM,52.0,-9999,N/A,29.43,4.0,South,12.7,18.4,0.06,,Haze,190,2012-11-19 11:53:00
4:15 AM,51.8,-9999,N/A,29.43,4.0,SSW,8.1,-,N/A,,Haze,200,2012-11-19 12:15:00
4:27 AM,51.8,-9999,N/A,29.42,3.0,SSW,5.8,-,0.00,Rain,Light Rain,200,2012-11-19 12:27:00
4:53 AM,52.0,-9999,N/A,29.41,5.0,South,6.9,-,0.01,,Haze,190,2012-11-19 12:53:00
5:06 AM,51.8,-9999,N/A,29.39,5.0,Calm,Calm,-,N/A,,Haze,0,2012-11-19 13:06:00
5:39 AM,51.8,-9999,N/A,29.38,4.0,Variable,4.6,-,0.00,Rain,Light Rain,0,2012-11-19 13:39:00
5:53 AM,52.0,-9999,N/A,29.38,4.0,Variable,6.9,-,0.01,Rain,Light Rain,0,2012-11-19 13:53:00
6:28 AM,51.8,-9999,N/A,29.36,5.0,SSE,8.1,-,0.00,,Haze,160,2012-11-19 14:28:00
6:44 AM,51.8,-9999,N/A,29.37,6.0,South,10.4,16.1,0.00,,Haze,170,2012-11-19 14:44:00
6:53 AM,51.1,-9999,N/A,29.38,6.0,Variable,4.6,21.9,0.00,,Haze,0,2012-11-19 14:53:00
7:01 AM,51.8,48.2,88,29.38,6.0,SSE,4.6,-,N/A,,Overcast,160,2012-11-19 15:01:00
7:43 AM,50.0,48.2,94,29.38,2.5,SSE,8.1,-,0.05,Rain,Rain,160,2012-11-19 15:43:00
7:53 AM,50.0,48.9,96,29.39,2.5,SSE,6.9,-,0.07,Rain,Rain,150,2012-11-19 15:53:00
8:29 AM,48.2,48.2,100,29.40,1.2,SE,8.1,-,0.13,Rain,Rain,140,2012-11-19 16:29:00
8:53 AM,48.0,46.9,96,29.42,1.2,SE,4.6,-,0.20,Rain,Rain,140,2012-11-19 16:53:00
9:21 AM,48.2,46.4,93,29.38,2.0,ESE,6.9,-,0.04,Rain,Light Rain,110,2012-11-19 17:21:00
9:33 AM,46.4,46.4,100,29.36,4.0,ESE,9.2,-,0.05,Rain,Light Rain,110,2012-11-19 17:33:00
9:53 AM,46.9,46.0,97,29.36,6.0,ESE,8.1,-,0.05,,Overcast,110,2012-11-19 17:53:00
10:34 AM,46.4,44.6,93,29.34,2.0,ESE,4.6,-,0.02,Rain,Rain,110,2012-11-19 18:34:00
10:53 AM,46.9,45.0,93,29.33,2.0,East,8.1,-,0.07,Rain,Light Rain,90,2012-11-19 18:53:00
11:02 AM,46.4,44.6,93,29.32,3.0,East,10.4,16.1,0.00,Rain,Light Rain,100,2012-11-19 19:02:00
11:14 AM,46.4,44.6,93,29.33,2.5,East,6.9,-,0.02,Rain,Light Rain,90,2012-11-19 19:14:00
11:40 AM,46.4,44.6,93,29.29,4.0,East,6.9,-,0.03,Rain,Light Rain,80,2012-11-19 19:40:00
11:53 AM,46.9,45.0,93,29.30,7.0,ENE,5.8,-,0.03,,Overcast,70,2012-11-19 19:53:00
12:04 PM,46.4,46.4,100,29.30,6.0,East,5.8,-,N/A,,Overcast,80,2012-11-19 20:04:00
12:53 PM,48.0,46.0,93,29.31,3.0,ENE,4.6,-,0.00,Rain,Light Rain,70,2012-11-19 20:53:00
1:17 PM,48.2,46.4,93,29.32,6.0,East,5.8,-,0.01,,Overcast,100,2012-11-19 21:17:00
1:30 PM,48.2,46.4,93,29.33,6.0,Calm,Calm,-,0.01,,Overcast,0,2012-11-19 21:30:00
1:38 PM,48.2,46.4,93,29.33,6.0,ENE,3.5,-,0.01,,Overcast,70,2012-11-19 21:38:00
1:53 PM,48.9,46.9,93,29.34,6.0,East,4.6,-,0.01,,Overcast,90,2012-11-19 21:53:00
2:53 PM,50.0,48.0,93,29.37,6.0,Calm,Calm,-,N/A,,Overcast,0,2012-11-19 22:53:00
2:59 PM,50.0,48.2,94,29.37,4.0,Calm,Calm,-,0.00,Rain,Light Rain,0,2012-11-19 22:59:00
3:05 PM,50.0,48.2,94,29.37,2.5,Calm,Calm,-,0.00,Rain,Light Rain,0,2012-11-19 23:05:00
3:26 PM,50.0,48.2,94,29.38,3.0,South,12.7,21.9,0.00,,Overcast,190,2012-11-19 23:26:00
3:40 PM,50.0,48.2,94,29.39,1.5,South,9.2,17.3,0.00,Rain,Light Rain,190,2012-11-19 23:40:00
3:53 PM,50.0,48.9,96,29.39,4.0,South,9.2,18.4,0.01,,Overcast,190,2012-11-19 23:53:00
4:20 PM,50.0,48.2,94,29.41,5.0,SSW,8.1,23.0,N/A,,Overcast,200,2012-11-20 00:20:00
4:31 PM,50.0,48.2,94,29.42,5.0,South,12.7,19.6,N/A,,Overcast,190,2012-11-20 00:31:00
4:53 PM,48.9,44.1,83,29.43,3.0,West,10.4,23.0,0.02,Rain,Light Rain,260,2012-11-20 00:53:00
5:05 PM,48.2,44.6,87,29.44,5.0,SW,5.8,-,0.00,Rain,Light Rain,220,2012-11-20 01:05:00
5:53 PM,46.9,46.0,97,29.48,5.0,SSW,5.8,-,0.01,,Overcast,210,2012-11-20 01:53:00
6:53 PM,48.0,46.9,96,29.51,5.0,SSW,3.5,-,N/A,,Overcast,200,2012-11-20 02:53:00
7:42 PM,48.2,46.4,93,29.53,6.0,Variable,5.8,-,N/A,,Overcast,0,2012-11-20 03:42:00
7:53 PM,48.0,46.0,93,29.54,6.0,South,4.6,-,N/A,,Overcast,190,2012-11-20 03:53:00
8:27 PM,48.2,46.4,93,29.56,6.0,South,3.5,-,N/A,,Overcast,180,2012-11-20 04:27:00
8:53 PM,48.9,46.9,93,29.56,6.0,SE,3.5,-,N/A,,Overcast,140,2012-11-20 04:53:00
9:19 PM,48.2,46.4,93,29.56,4.0,Calm,Calm,-,0.01,Rain,Light Rain,0,2012-11-20 05:19:00
9:27 PM,48.2,46.4,93,29.56,4.0,SE,5.8,-,0.01,Rain,Light Rain,140,2012-11-20 05:27:00
9:43 PM,48.2,46.4,93,29.57,1.8,SSE,9.2,-,0.02,Rain,Heavy Rain,150,2012-11-20 05:43:00
9:50 PM,48.2,46.4,93,29.57,1.5,SSE,10.4,-,0.05,Rain,Light Rain,160,2012-11-20 05:50:00
9:53 PM,48.0,46.0,93,29.58,2.0,Variable,4.6,-,0.05,Rain,Light Rain,0,2012-11-20 05:53:00
9:57 PM,46.4,44.6,93,29.57,3.0,Variable,4.6,-,0.01,Rain,Light Rain,0,2012-11-20 05:57:00
10:04 PM,46.4,44.6,93,29.58,7.0,SE,3.5,-,0.01,,Mostly Cloudy,140,2012-11-20 06:04:00
10:53 PM,46.0,45.0,96,29.60,6.0,East,4.6,-,0.01,,Overcast,90,2012-11-20 06:53:00
11:53 PM,46.0,44.1,93,29.62,6.0,East,3.5,-,N/A,,Overcast,90,2012-11-20 07:53:00